Location: Ebenezer
(18.2167°N, 63.0667°W)
Time: 16:53:14
(UTC+00:00)

Haruka - Pass Details

Date: 26 January 2020
Orbit: 541 x 21211 km, 31.3° (Epoch: 17 February)

Event Time Altitude Azimuth Distance (km) Brightness Sun altitude
Rises 22:36:48 0° 287° (WNW) 2,839 7.0 -8.5°
Reaches altitude 10° 22:39:29 10° 311° (NW) 1,787 5.4 -9.1°
Maximum altitude 22:41:51 17° 358° (N) 1,490 4.4 -9.6°
Drops below altitude 10° 22:44:55 10° 43° (NE) 2,355 5.0 -10.3°
Enters shadow 22:45:12 - 45° (NE) 2,474 5.1 -10.4°
